| time (UTC) | temp F | wind direction | speed MPH | gust MPH | rain 1hr in | rain 24hr in | rain mn in | humidity % | barometer mb |
| 20260509005053 | 53 | 360 | 0.0 | 2.0 | 0.00 | 0.00 | 0.00 | 84 | 1014.2 |
| 20260509004553 | 53 | 360 | 0.0 | 3.0 | 0.00 | 0.00 | 0.00 | 84 | 1014.3 |
| 20260509004048 | 53 | 360 | 0.0 | 5.0 | 0.00 | 0.00 | 0.00 | 84 | 1014.3 |
| 20260509003549 | 52 | 217 | 3.0 | 5.0 | 0.00 | 0.00 | 0.00 | 84 | 1014.2 |
| 20260509003053 | 53 | 360 | 1.0 | 5.0 | 0.00 | 0.00 | 0.00 | 85 | 1014.2 |
| 20260509002547 | 52 | 360 | 0.0 | 4.0 | 0.00 | 0.00 | 0.00 | 85 | 1014.1 |
| 20260509002047 | 52 | 360 | 0.0 | 5.0 | 0.00 | 0.00 | 0.00 | 85 | 1014.1 |
| 20260509001548 | 53 | 360 | 0.0 | 6.0 | 0.00 | 0.00 | 0.00 | 85 | 1014.1 |
| 20260509001048 | 53 | 360 | 3.0 | 6.0 | 0.00 | 0.00 | 0.00 | 85 | 1014.1 |
| 20260509000551 | 53 | 360 | 3.0 | 5.0 | 0.00 | 0.00 | 0.00 | 84 | 1014.0 |
| 20260509000047 | 53 | 360 | 3.0 | 8.0 | 0.00 | 0.00 | 0.00 | 84 | 1014.0 |
| 20260508235547 | 53 | 360 | 3.0 | 8.0 | 0.00 | 0.00 | 0.00 | 83 | 1014.0 |
| 20260508235049 | 53 | 217 | 1.0 | 4.0 | 0.00 | 0.00 | 0.00 | 82 | 1013.9 |
| 20260508234550 | 53 | 217 | 1.0 | 4.0 | 0.00 | 0.00 | 0.00 | 82 | 1013.6 |
| 20260508234046 | 54 | 217 | 1.0 | 4.0 | 0.00 | 0.00 | 0.00 | 82 | 1013.7 |
| 20260508233546 | 54 | 217 | 0.0 | 5.0 | 0.00 | 0.00 | 0.00 | 81 | 1013.7 |
| 20260508233053 | 54 | 217 | 2.0 | 5.0 | 0.00 | 0.00 | 0.00 | 81 | 1013.6 |
| 20260508232546 | 54 | 217 | 2.0 | 5.0 | 0.00 | 0.00 | 0.00 | 80 | 1013.4 |
| 20260508232050 | 54 | 217 | 2.0 | 7.0 | 0.00 | 0.00 | 0.00 | 80 | 1013.5 |
| 20260508231546 | 55 | 217 | 4.0 | 7.0 | 0.00 | 0.00 | 0.00 | 79 | 1013.5 |
| 20260508231046 | 55 | 217 | 1.0 | 4.0 | 0.00 | 0.00 | 0.00 | 79 | 1013.3 |
| 20260508230546 | 55 | 217 | 1.0 | 4.0 | 0.00 | 0.00 | 0.00 | 78 | 1013.1 |
| 20260508230116 | 55 | 217 | 1.0 | 6.0 | 0.00 | 0.00 | 0.00 | 78 | 1013.1 |
| 20260508225545 | 55 | 217 | 4.0 | 6.0 | 0.00 | 0.00 | 0.00 | 77 | 1013.2 |
| 20260508225048 | 55 | 217 | 3.0 | 7.0 | 0.00 | 0.00 | 0.00 | 77 | 1013.0 |
| 20260508224549 | 55 | 217 | 4.0 | 7.0 | 0.00 | 0.00 | 0.00 | 77 | 1013.1 |
| 20260508224047 | 56 | 217 | 1.0 | 3.0 | 0.00 | 0.00 | 0.00 | 77 | 1013.0 |
| 20260508223544 | 56 | 217 | 1.0 | 8.0 | 0.00 | 0.00 | 0.00 | 77 | 1013.0 |
| 20260508223044 | 56 | 217 | 2.0 | 8.0 | 0.00 | 0.00 | 0.00 | 77 | 1013.0 |
| 20260508222544 | 56 | 217 | 3.0 | 11.0 | 0.00 | 0.00 | 0.00 | 77 | 1013.1 |
| 20260508222046 | 56 | 218 | 3.0 | 11.0 | 0.00 | 0.00 | 0.00 | 76 | 1013.0 |
| 20260508221543 | 56 | 209 | 5.0 | 8.0 | 0.00 | 0.00 | 0.00 | 75 | 1012.9 |
| 20260508221043 | 56 | 206 | 2.0 | 7.0 | 0.00 | 0.00 | 0.00 | 76 | 1012.9 |
| 20260508220543 | 56 | 206 | 3.0 | 10.0 | 0.00 | 0.00 | 0.00 | 74 | 1012.9 |
| 20260508220111 | 56 | 207 | 3.0 | 13.0 | 0.00 | 0.00 | 0.00 | 73 | 1013.0 |
| 20260508215543 | 56 | 206 | 4.0 | 14.0 | 0.00 | 0.00 | 0.00 | 73 | 1013.0 |
| 20260508215043 | 56 | 214 | 4.0 | 11.0 | 0.00 | 0.00 | 0.00 | 74 | 1013.0 |
| 20260508214543 | 56 | 213 | 7.0 | 11.0 | 0.00 | 0.00 | 0.00 | 74 | 1013.1 |
| 20260508214043 | 56 | 213 | 2.0 | 11.0 | 0.00 | 0.00 | 0.00 | 74 | 1013.1 |
| 20260508213546 | 56 | 219 | 3.0 | 10.0 | 0.00 | 0.00 | 0.00 | 74 | 1013.1 |
| 20260508213042 | 55 | 215 | 5.0 | 10.0 | 0.00 | 0.00 | 0.00 | 75 | 1013.2 |
| 20260508212543 | 56 | 209 | 5.0 | 11.0 | 0.00 | 0.00 | 0.00 | 74 | 1013.2 |
| 20260508212042 | 56 | 245 | 3.0 | 15.0 | 0.00 | 0.00 | 0.00 | 75 | 1013.1 |
| 20260508211547 | 55 | 217 | 4.0 | 15.0 | 0.00 | 0.00 | 0.00 | 75 | 1013.1 |
| 20260508211046 | 55 | 198 | 7.0 | 15.0 | 0.00 | 0.00 | 0.00 | 75 | 1013.2 |
| 20260508210541 | 55 | 178 | 11.0 | 15.0 | 0.00 | 0.00 | 0.00 | 74 | 1013.3 |
| 20260508210041 | 55 | 220 | 6.0 | 13.0 | 0.00 | 0.00 | 0.00 | 76 | 1013.3 |
| 20260508205642 | 54 | 203 | 8.0 | 15.0 | 0.00 | 0.00 | 0.00 | 78 | 1013.3 |
| 20260508205040 | 54 | 198 | 10.0 | 14.0 | 0.00 | 0.00 | 0.00 | 77 | 1013.3 |
| 20260508204543 | 54 | 209 | 7.0 | 13.0 | 0.00 | 0.00 | 0.00 | 77 | 1013.3 |
| 20260508204040 | 54 | 217 | 7.0 | 20.0 | 0.00 | 0.00 | 0.00 | 76 | 1013.5 |
| 20260508203540 | 54 | 236 | 4.0 | 20.0 | 0.00 | 0.00 | 0.00 | 75 | 1013.4 |
| 20260508203045 | 54 | 202 | 8.0 | 21.0 | 0.00 | 0.00 | 0.00 | 76 | 1013.3 |
| 20260508202540 | 54 | 196 | 9.0 | 23.0 | 0.00 | 0.00 | 0.00 | 76 | 1013.1 |
| 20260508202040 | 55 | 204 | 17.0 | 25.0 | 0.00 | 0.00 | 0.00 | 74 | 1012.9 |
| 20260508201540 | 55 | 205 | 14.0 | 21.0 | 0.00 | 0.00 | 0.00 | 73 | 1012.9 |
| 20260508201039 | 56 | 175 | 12.0 | 20.0 | 0.00 | 0.00 | 0.00 | 71 | 1012.8 |
| 20260508200540 | 56 | 219 | 12.0 | 23.0 | 0.00 | 0.00 | 0.00 | 71 | 1012.8 |
| 20260508200042 | 57 | 207 | 10.0 | 23.0 | 0.00 | 0.00 | 0.00 | 69 | 1012.8 |
| 20260508195539 | 57 | 198 | 11.0 | 17.0 | 0.00 | 0.00 | 0.00 | 70 | 1012.7 |
| 20260508195038 | 57 | 214 | 10.0 | 17.0 | 0.00 | 0.00 | 0.00 | 71 | 1012.8 |
| 20260508194540 | 57 | 226 | 7.0 | 14.0 | 0.00 | 0.00 | 0.00 | 72 | 1012.9 |
| 20260508194039 | 57 | 209 | 6.0 | 15.0 | 0.00 | 0.00 | 0.00 | 73 | 1013.0 |
| 20260508193544 | 56 | 165 | 9.0 | 19.0 | 0.00 | 0.00 | 0.00 | 74 | 1013.1 |
| 20260508193038 | 55 | 201 | 13.0 | 23.0 | 0.00 | 0.00 | 0.00 | 74 | 1013.2 |
| 20260508192537 | 55 | 205 | 15.0 | 23.0 | 0.00 | 0.00 | 0.00 | 72 | 1013.1 |
| 20260508192040 | 55 | 196 | 11.0 | 21.0 | 0.00 | 0.00 | 0.00 | 71 | 1013.1 |
| 20260508191538 | 55 | 189 | 14.0 | 22.0 | 0.00 | 0.00 | 0.00 | 70 | 1013.2 |
| 20260508191038 | 56 | 189 | 13.0 | 27.0 | 0.00 | 0.00 | 0.00 | 68 | 1013.0 |
| 20260508190537 | 56 | 196 | 15.0 | 27.0 | 0.00 | 0.00 | 0.00 | 66 | 1013.1 |
| 20260508190042 | 57 | 191 | 11.0 | 23.0 | 0.00 | 0.00 | 0.00 | 66 | 1013.1 |
| 20260508185537 | 57 | 199 | 12.0 | 23.0 | 0.00 | 0.00 | 0.00 | 64 | 1013.0 |
| 20260508185037 | 59 | 187 | 16.0 | 21.0 | 0.00 | 0.00 | 0.00 | 57 | 1012.9 |
| 20260508184545 | 61 | 237 | 16.0 | 23.0 | 0.00 | 0.00 | 0.00 | 45 | 1012.9 |
| 20260508184038 | 61 | 243 | 15.0 | 24.0 | 0.00 | 0.00 | 0.00 | 46 | 1013.1 |
| 20260508183538 | 61 | 254 | 15.0 | 24.0 | 0.00 | 0.00 | 0.00 | 43 | 1013.2 |
| 20260508183036 | 62 | 276 | 9.0 | 24.0 | 0.00 | 0.00 | 0.00 | 42 | 1013.3 |
| 20260508182535 | 63 | 254 | 11.0 | 21.0 | 0.00 | 0.00 | 0.00 | 40 | 1013.3 |
| 20260508182033 | 63 | 242 | 13.0 | 21.0 | 0.00 | 0.00 | 0.00 | 42 | 1013.3 |
| 20260508181543 | 62 | 294 | 10.0 | 28.0 | 0.00 | 0.00 | 0.00 | 42 | 1013.3 |
| 20260508181033 | 62 | 270 | 15.0 | 31.0 | 0.00 | 0.00 | 0.00 | 42 | 1013.4 |
| 20260508180535 | 62 | 250 | 14.0 | 31.0 | 0.00 | 0.00 | 0.00 | 43 | 1013.1 |
| 20260508180032 | 61 | 242 | 16.0 | 27.0 | 0.00 | 0.00 | 0.00 | 44 | 1013.3 |
| 20260508175532 | 62 | 246 | 16.0 | 26.0 | 0.00 | 0.00 | 0.00 | 43 | 1013.3 |
| 20260508175031 | 61 | 260 | 10.0 | 27.0 | 0.00 | 0.00 | 0.00 | 45 | 1013.3 |
| 20260508174536 | 61 | 244 | 16.0 | 27.0 | 0.00 | 0.00 | 0.00 | 47 | 1013.3 |
| 20260508174032 | 61 | 244 | 16.0 | 24.0 | 0.00 | 0.00 | 0.00 | 46 | 1013.3 |
| 20260508173531 | 62 | 207 | 11.0 | 25.0 | 0.00 | 0.00 | 0.00 | 45 | 1013.3 |
| 20260508173030 | 61 | 242 | 16.0 | 24.0 | 0.00 | 0.00 | 0.00 | 45 | 1013.1 |
| 20260508172529 | 62 | 241 | 10.0 | 23.0 | 0.00 | 0.00 | 0.00 | 45 | 1013.4 |
| 20260508172029 | 62 | 236 | 12.0 | 28.0 | 0.00 | 0.00 | 0.00 | 45 | 1013.3 |
| 20260508171528 | 61 | 254 | 18.0 | 28.0 | 0.00 | 0.00 | 0.00 | 45 | 1013.5 |
| 20260508171026 | 61 | 254 | 18.0 | 28.0 | 0.00 | 0.00 | 0.00 | 48 | 1013.5 |
| 20260508170527 | 60 | 270 | 20.0 | 28.0 | 0.00 | 0.00 | 0.00 | 48 | 1013.6 |
| 20260508170026 | 60 | 264 | 17.0 | 27.0 | 0.00 | 0.00 | 0.00 | 46 | 1013.4 |
| 20260508165524 | 60 | 219 | 16.0 | 25.0 | 0.00 | 0.00 | 0.00 | 48 | 1013.8 |
| 20260508165023 | 60 | 234 | 18.0 | 25.0 | 0.00 | 0.00 | 0.00 | 47 | 1013.9 |
| 20260508164522 | 59 | 238 | 12.0 | 21.0 | 0.00 | 0.00 | 0.00 | 53 | 1013.9 |
| 20260508164022 | 59 | 252 | 12.0 | 21.0 | 0.00 | 0.00 | 0.00 | 53 | 1013.9 |
| 20260508163520 | 59 | 213 | 13.0 | 22.0 | 0.00 | 0.00 | 0.00 | 54 | 1013.7 |
| 20260508163033 | 58 | 236 | 13.0 | 22.0 | 0.00 | 0.00 | 0.00 | 56 | 1013.6 |
| 20260508162521 | 58 | 237 | 15.0 | 26.0 | 0.00 | 0.00 | 0.00 | 58 | 1013.6 |
| 20260508162021 | 58 | 251 | 15.0 | 26.0 | 0.00 | 0.00 | 0.00 | 59 | 1013.8 |
| 20260508161528 | 57 | 246 | 12.0 | 24.0 | 0.00 | 0.00 | 0.00 | 63 | 1013.8 |
| 20260508161022 | 57 | 203 | 12.0 | 24.0 | 0.00 | 0.00 | 0.00 | 61 | 1013.8 |
| 20260508160519 | 58 | 223 | 14.0 | 23.0 | 0.00 | 0.00 | 0.00 | 59 | 1013.7 |
| 20260508160018 | 57 | 223 | 12.0 | 23.0 | 0.00 | 0.00 | 0.00 | 61 | 1013.7 |
| 20260508155518 | 57 | 205 | 8.0 | 18.0 | 0.00 | 0.00 | 0.00 | 60 | 1013.7 |
| 20260508155019 | 57 | 255 | 11.0 | 18.0 | 0.00 | 0.00 | 0.00 | 61 | 1013.8 |
| 20260508154519 | 58 | 230 | 9.0 | 19.0 | 0.00 | 0.00 | 0.00 | 60 | 1013.8 |
| 20260508154018 | 58 | 250 | 12.0 | 20.0 | 0.00 | 0.00 | 0.00 | 61 | 1013.9 |
| 20260508153521 | 57 | 250 | 9.0 | 20.0 | 0.00 | 0.00 | 0.00 | 63 | 1013.8 |
| 20260508153020 | 57 | 252 | 8.0 | 18.0 | 0.00 | 0.00 | 0.00 | 64 | 1013.9 |
| 20260508152518 | 56 | 169 | 11.0 | 20.0 | 0.00 | 0.00 | 0.00 | 64 | 1013.9 |
| 20260508152018 | 57 | 236 | 12.0 | 20.0 | 0.00 | 0.00 | 0.00 | 64 | 1013.9 |
| 20260508151518 | 56 | 217 | 9.0 | 18.0 | 0.00 | 0.00 | 0.00 | 67 | 1013.9 |
| 20260508151021 | 56 | 213 | 10.0 | 21.0 | 0.00 | 0.00 | 0.00 | 66 | 1013.9 |
| 20260508150518 | 57 | 233 | 6.0 | 15.0 | 0.00 | 0.00 | 0.00 | 65 | 1014.0 |
| 20260508150023 | 56 | 238 | 7.0 | 17.0 | 0.00 | 0.00 | 0.00 | 65 | 1014.1 |
| 20260508145517 | 56 | 240 | 9.0 | 18.0 | 0.00 | 0.00 | 0.00 | 64 | 1014.0 |
| 20260508145019 | 56 | 246 | 12.0 | 18.0 | 0.00 | 0.00 | 0.00 | 64 | 1014.2 |
| 20260508144517 | 56 | 259 | 11.0 | 17.0 | 0.00 | 0.00 | 0.00 | 64 | 1014.2 |
| 20260508144017 | 57 | 288 | 8.0 | 13.0 | 0.00 | 0.00 | 0.00 | 61 | 1014.3 |
| 20260508143517 | 57 | 289 | 5.0 | 13.0 | 0.00 | 0.00 | 0.00 | 63 | 1014.2 |
| 20260508143023 | 59 | 292 | 6.0 | 17.0 | 0.00 | 0.00 | 0.00 | 47 | 1014.4 |
| 20260508142519 | 59 | 292 | 8.0 | 17.0 | 0.00 | 0.00 | 0.00 | 41 | 1014.5 |
| 20260508142020 | 58 | 298 | 5.0 | 20.0 | 0.00 | 0.00 | 0.00 | 45 | 1014.3 |
| 20260508141514 | 58 | 299 | 11.0 | 20.0 | 0.00 | 0.00 | 0.00 | 45 | 1014.2 |
| 20260508141013 | 58 | 297 | 7.0 | 13.0 | 0.00 | 0.00 | 0.00 | 46 | 1014.3 |
| 20260508140512 | 58 | 298 | 7.0 | 11.0 | 0.00 | 0.00 | 0.00 | 47 | 1014.2 |
| 20260508140021 | 57 | 299 | 4.0 | 11.0 | 0.00 | 0.00 | 0.00 | 49 | 1014.3 |
| 20260508135510 | 57 | 298 | 4.0 | 12.0 | 0.00 | 0.00 | 0.00 | 49 | 1014.2 |
| 20260508135009 | 57 | 298 | 6.0 | 12.0 | 0.00 | 0.00 | 0.00 | 49 | 1014.3 |
| 20260508134510 | 57 | 300 | 5.0 | 11.0 | 0.00 | 0.00 | 0.00 | 51 | 1014.3 |
| 20260508134008 | 57 | 300 | 6.0 | 13.0 | 0.00 | 0.00 | 0.00 | 52 | 1014.3 |
| 20260508133508 | 56 | 300 | 7.0 | 13.0 | 0.00 | 0.00 | 0.00 | 52 | 1014.3 |
| 20260508133009 | 56 | 302 | 5.0 | 13.0 | 0.00 | 0.00 | 0.00 | 54 | 1014.3 |
| 20260508132513 | 56 | 302 | 6.0 | 16.0 | 0.00 | 0.00 | 0.00 | 54 | 1014.3 |
| 20260508132007 | 55 | 302 | 8.0 | 16.0 | 0.00 | 0.00 | 0.00 | 52 | 1014.4 |
| 20260508131506 | 56 | 304 | 4.0 | 12.0 | 0.00 | 0.00 | 0.00 | 56 | 1014.4 |
| 20260508131007 | 56 | 304 | 4.0 | 12.0 | 0.00 | 0.00 | 0.00 | 56 | 1014.3 |
| 20260508130504 | 55 | 304 | 4.0 | 12.0 | 0.00 | 0.00 | 0.00 | 58 | 1014.3 |
| 20260508130005 | 54 | 304 | 7.0 | 13.0 | 0.00 | 0.00 | 0.00 | 59 | 1014.5 |
| 20260508125502 | 55 | 304 | 7.0 | 15.0 | 0.00 | 0.00 | 0.00 | 59 | 1014.4 |
| 20260508125005 | 54 | 304 | 10.0 | 15.0 | 0.00 | 0.00 | 0.00 | 60 | 1014.5 |
| 20260508124502 | 54 | 305 | 8.0 | 15.0 | 0.00 | 0.00 | 0.00 | 62 | 1014.6 |
| 20260508124105 | 54 | 305 | 7.0 | 15.0 | 0.00 | 0.00 | 0.00 | 62 | 1014.6 |
| 20260508123603 | 54 | 308 | 9.0 | 13.0 | 0.00 | 0.00 | 0.00 | 63 | 1014.7 |
| 20260508123108 | 54 | 309 | 8.0 | 15.0 | 0.00 | 0.00 | 0.00 | 65 | 1014.8 |
| 20260508122601 | 54 | 310 | 9.0 | 14.0 | 0.00 | 0.00 | 0.00 | 65 | 1014.9 |
| 20260508122057 | 53 | 320 | 8.0 | 13.0 | 0.00 | 0.00 | 0.00 | 67 | 1014.8 |
| 20260508121559 | 53 | 320 | 8.0 | 12.0 | 0.00 | 0.00 | 0.00 | 67 | 1014.7 |
| 20260508121057 | 53 | 320 | 4.0 | 9.0 | 0.00 | 0.00 | 0.00 | 68 | 1014.7 |
| 20260508120555 | 53 | 320 | 4.0 | 11.0 | 0.00 | 0.00 | 0.00 | 68 | 1014.9 |
| 20260508120053 | 53 | 320 | 5.0 | 13.0 | 0.00 | 0.00 | 0.00 | 68 | 1014.6 |
| 20260508115553 | 52 | 320 | 6.0 | 13.0 | 0.00 | 0.00 | 0.00 | 68 | 1014.6 |
| 20260508115051 | 52 | 320 | 5.0 | 12.0 | 0.00 | 0.00 | 0.00 | 68 | 1014.6 |
| 20260508114552 | 52 | 320 | 4.0 | 13.0 | 0.00 | 0.00 | 0.00 | 69 | 1014.6 |
| 20260508114055 | 52 | 320 | 6.0 | 13.0 | 0.00 | 0.00 | 0.00 | 68 | 1014.5 |
| 20260508113549 | 52 | 320 | 4.0 | 9.0 | 0.00 | 0.00 | 0.00 | 71 | 1014.6 |
| 20260508113059 | 51 | 320 | 2.0 | 8.0 | 0.00 | 0.00 | 0.00 | 73 | 1014.6 |
| 20260508112546 | 51 | 320 | 3.0 | 9.0 | 0.00 | 0.00 | 0.00 | 73 | 1014.5 |
| 20260508112047 | 50 | 320 | 4.0 | 10.0 | 0.00 | 0.00 | 0.00 | 74 | 1014.2 |
| 20260508111547 | 50 | 320 | 2.0 | 10.0 | 0.00 | 0.00 | 0.00 | 75 | 1014.1 |
| 20260508111048 | 50 | 320 | 4.0 | 9.0 | 0.00 | 0.00 | 0.00 | 76 | 1014.1 |
| 20260508110547 | 49 | 320 | 4.0 | 9.0 | 0.00 | 0.00 | 0.00 | 77 | 1013.9 |
| 20260508110044 | 49 | 320 | 4.0 | 8.0 | 0.00 | 0.01 | 0.00 | 77 | 1013.8 |
| 20260508105543 | 49 | 320 | 3.0 | 8.0 | 0.00 | 0.01 | 0.00 | 77 | 1013.9 |
| 20260508105044 | 49 | 320 | 3.0 | 8.0 | 0.00 | 0.01 | 0.00 | 78 | 1013.9 |
| 20260508104543 | 49 | 320 | 3.0 | 6.0 | 0.00 | 0.01 | 0.00 | 78 | 1013.9 |
| 20260508104045 | 48 | 320 | 3.0 | 5.0 | 0.00 | 0.01 | 0.00 | 78 | 1013.8 |
| 20260508103544 | 48 | 320 | 2.0 | 8.0 | 0.00 | 0.01 | 0.00 | 78 | 1013.8 |
| 20260508103047 | 48 | 320 | 3.0 | 8.0 | 0.00 | 0.01 | 0.00 | 78 | 1013.8 |
| 20260508102542 | 48 | 320 | 3.0 | 6.0 | 0.00 | 0.01 | 0.00 | 77 | 1013.8 |
| 20260508102042 | 48 | 320 | 3.0 | 8.0 | 0.00 | 0.01 | 0.00 | 77 | 1013.7 |
| 20260508101542 | 48 | 320 | 4.0 | 8.0 | 0.00 | 0.01 | 0.00 | 77 | 1013.6 |
| 20260508101042 | 48 | 320 | 4.0 | 8.0 | 0.00 | 0.01 | 0.00 | 77 | 1013.6 |
| 20260508100544 | 48 | 320 | 2.0 | 5.0 | 0.00 | 0.01 | 0.00 | 77 | 1013.5 |
| 20260508100041 | 48 | 320 | 2.0 | 5.0 | 0.00 | 0.01 | 0.00 | 77 | 1013.5 |
| 20260508095540 | 48 | 320 | 1.0 | 8.0 | 0.00 | 0.01 | 0.00 | 77 | 1013.2 |
| 20260508095039 | 48 | 320 | 2.0 | 9.0 | 0.00 | 0.01 | 0.00 | 78 | 1013.4 |
| 20260508094603 | 48 | 320 | 2.0 | 6.0 | 0.00 | 0.01 | 0.00 | 78 | 1013.4 |
| 20260508094041 | 48 | 320 | 2.0 | 5.0 | 0.00 | 0.01 | 0.00 | 78 | 1013.6 |
| 20260508093539 | 48 | 320 | 2.0 | 8.0 | 0.00 | 0.01 | 0.00 | 78 | 1013.4 |
| 20260508093037 | 48 | 320 | 3.0 | 9.0 | 0.00 | 0.01 | 0.00 | 78 | 1013.3 |
| 20260508092537 | 48 | 320 | 3.0 | 9.0 | 0.00 | 0.01 | 0.00 | 78 | 1013.4 |
| 20260508092035 | 48 | 320 | 2.0 | 6.0 | 0.00 | 0.01 | 0.00 | 78 | 1013.3 |
| 20260508091540 | 48 | 320 | 3.0 | 10.0 | 0.00 | 0.01 | 0.00 | 79 | 1013.2 |
| 20260508091035 | 48 | 320 | 2.0 | 10.0 | 0.00 | 0.01 | 0.00 | 79 | 1013.2 |
| 20260508090534 | 47 | 320 | 2.0 | 8.0 | 0.00 | 0.01 | 0.00 | 79 | 1013.1 |
| 20260508090033 | 47 | 320 | 2.0 | 10.0 | 0.00 | 0.01 | 0.00 | 78 | 1013.1 |
| 20260508085533 | 47 | 320 | 4.0 | 11.0 | 0.00 | 0.01 | 0.00 | 78 | 1012.9 |
| 20260508085031 | 47 | 320 | 4.0 | 12.0 | 0.00 | 0.01 | 0.00 | 78 | 1012.8 |
| 20260508084531 | 48 | 320 | 5.0 | 12.0 | 0.00 | 0.01 | 0.00 | 77 | 1012.7 |
| 20260508084031 | 48 | 320 | 4.0 | 11.0 | 0.00 | 0.01 | 0.00 | 77 | 1012.7 |
| 20260508083529 | 48 | 320 | 4.0 | 13.0 | 0.00 | 0.01 | 0.00 | 76 | 1012.5 |
| 20260508083029 | 48 | 320 | 7.0 | 13.0 | 0.00 | 0.01 | 0.00 | 75 | 1012.6 |
| 20260508082527 | 48 | 320 | 7.0 | 13.0 | 0.00 | 0.01 | 0.00 | 75 | 1012.5 |
| 20260508082027 | 48 | 320 | 4.0 | 12.0 | 0.00 | 0.01 | 0.00 | 74 | 1012.5 |
| 20260508081554 | 48 | 320 | 5.0 | 12.0 | 0.00 | 0.01 | 0.00 | 73 | 1012.4 |
| 20260508081025 | 48 | 320 | 3.0 | 13.0 | 0.00 | 0.01 | 0.00 | 72 | 1012.3 |
| 20260508080525 | 49 | 320 | 6.0 | 13.0 | 0.00 | 0.01 | 0.00 | 72 | 1012.4 |
| 20260508080125 | 49 | 320 | 4.0 | 10.0 | 0.00 | 0.03 | 0.00 | 71 | 1012.3 |
| 20260508075522 | 49 | 320 | 4.0 | 14.0 | 0.00 | 0.03 | 0.00 | 71 | 1012.2 |
| 20260508075021 | 49 | 320 | 4.0 | 14.0 | 0.00 | 0.03 | 0.00 | 70 | 1012.2 |
| 20260508074521 | 49 | 317 | 6.0 | 13.0 | 0.00 | 0.03 | 0.00 | 69 | 1012.2 |
| 20260508074020 | 49 | 317 | 4.0 | 16.0 | 0.00 | 0.03 | 0.00 | 69 | 1012.3 |
| 20260508073521 | 50 | 317 | 5.0 | 16.0 | 0.00 | 0.03 | 0.00 | 68 | 1012.3 |
| 20260508073023 | 50 | 310 | 6.0 | 14.0 | 0.00 | 0.03 | 0.00 | 67 | 1012.4 |
| 20260508072519 | 50 | 310 | 6.0 | 16.0 | 0.00 | 0.03 | 0.00 | 67 | 1012.3 |
| 20260508072019 | 50 | 306 | 9.0 | 16.0 | 0.00 | 0.03 | 0.00 | 66 | 1012.3 |
| 20260508071535 | 50 | 253 | 6.0 | 12.0 | 0.00 | 0.03 | 0.00 | 67 | 1012.4 |
| 20260508071018 | 50 | 252 | 5.0 | 12.0 | 0.00 | 0.03 | 0.00 | 67 | 1012.5 |
| 20260508070519 | 50 | 233 | 4.0 | 8.0 | 0.00 | 0.03 | 0.00 | 70 | 1012.4 |
| 20260508070015 | 50 | 233 | 2.0 | 8.0 | 0.00 | 0.15 | 0.00 | 75 | 1012.4 |
| 20260508065515 | 49 | 233 | 4.0 | 8.0 | 0.00 | 0.15 | 0.00 | 80 | 1012.6 |
| 20260508065012 | 49 | 233 | 3.0 | 7.0 | 0.00 | 0.15 | 0.00 | 84 | 1012.5 |
| 20260508064512 | 48 | 233 | 3.0 | 10.0 | 0.00 | 0.15 | 0.00 | 87 | 1012.6 |
| 20260508064013 | 48 | 234 | 3.0 | 8.0 | 0.00 | 0.15 | 0.00 | 89 | 1012.6 |
| 20260508063514 | 48 | 233 | 3.0 | 8.0 | 0.00 | 0.15 | 0.00 | 90 | 1012.6 |
| 20260508063018 | 48 | 233 | 1.0 | 4.0 | 0.00 | 0.15 | 0.00 | 91 | 1012.2 |
| 20260508062512 | 47 | 233 | 2.0 | 3.0 | 0.00 | 0.15 | 0.00 | 90 | 1011.7 |
| 20260508062007 | 47 | 360 | 2.0 | 3.0 | 0.00 | 0.15 | 0.00 | 90 | 1011.3 |
| 20260508061507 | 47 | 360 | 0.0 | 2.0 | 0.00 | 0.15 | 0.00 | 90 | 1011.2 |
| 20260508061006 | 47 | 360 | 0.0 | 0.0 | 0.00 | 0.15 | 0.00 | 90 | 1011.3 |
| 20260508060506 | 48 | 360 | 0.0 | 2.0 | 0.00 | 0.15 | 0.00 | 90 | 1011.4 |
| 20260508060005 | 48 | 360 | 0.0 | 2.0 | 0.00 | 0.15 | 0.00 | 90 | 1011.4 |
| 20260508055505 | 47 | 360 | 0.0 | 1.0 | 0.00 | 0.15 | 0.00 | 90 | 1011.2 |
| 20260508055005 | 48 | 360 | 0.0 | 2.0 | 0.00 | 0.15 | 0.00 | 90 | 1011.3 |
| 20260508054507 | 47 | 360 | 0.0 | 2.0 | 0.00 | 0.15 | 0.00 | 89 | 1011.2 |
| 20260508054002 | 48 | 360 | 0.0 | 1.0 | 0.00 | 0.15 | 0.00 | 89 | 1011.1 |
| 20260508053502 | 48 | 360 | 0.0 | 1.0 | 0.00 | 0.15 | 0.00 | 89 | 1010.9 |
| 20260508053005 | 48 | 360 | 0.0 | 0.0 | 0.00 | 0.15 | 0.00 | 89 | 1011.0 |
| 20260508052505 | 48 | 360 | 0.0 | 0.0 | 0.00 | 0.15 | 0.00 | 89 | 1011.2 |
| 20260508052002 | 48 | 232 | 0.0 | 0.0 | 0.00 | 0.15 | 0.00 | 88 | 1011.1 |
| 20260508051501 | 48 | 233 | 0.0 | 3.0 | 0.00 | 0.15 | 0.00 | 88 | 1011.1 |
| 20260508051100 | 48 | 233 | 0.0 | 3.0 | 0.00 | 0.15 | 0.00 | 88 | 1011.1 |
| 20260508050559 | 48 | 233 | 0.0 | 4.0 | 0.00 | 0.15 | 0.00 | 88 | 1011.0 |
| 20260508050058 | 49 | 233 | 2.0 | 4.0 | 0.00 | 0.17 | 0.00 | 88 | 1011.0 |
| 20260508045557 | 49 | 233 | 1.0 | 4.0 | 0.00 | 0.17 | 0.00 | 88 | 1010.9 |
| 20260508045056 | 49 | 233 | 0.0 | 0.0 | 0.00 | 0.17 | 0.00 | 87 | 1010.9 |
| 20260508044555 | 49 | 233 | 0.0 | 0.0 | 0.00 | 0.17 | 0.00 | 87 | 1010.9 |
| 20260508044056 | 49 | 233 | 0.0 | 0.0 | 0.00 | 0.17 | 0.00 | 85 | 1010.8 |
| 20260508043552 | 50 | 233 | 0.0 | 0.0 | 0.00 | 0.17 | 0.00 | 85 | 1010.7 |
| 20260508043054 | 50 | 360 | 0.0 | 1.0 | 0.00 | 0.17 | 0.00 | 85 | 1010.7 |
| 20260508042552 | 50 | 360 | 0.0 | 1.0 | 0.00 | 0.17 | 0.00 | 85 | 1010.7 |
| 20260508042051 | 50 | 360 | 0.0 | 3.0 | 0.00 | 0.17 | 0.00 | 84 | 1010.8 |
| 20260508041550 | 51 | 360 | 0.0 | 4.0 | 0.00 | 0.17 | 0.00 | 84 | 1010.9 |
| 20260508041049 | 51 | 360 | 2.0 | 5.0 | 0.00 | 0.17 | 0.00 | 83 | 1010.9 |
| 20260508040549 | 51 | 360 | 3.0 | 6.0 | 0.00 | 0.17 | 0.00 | 83 | 1011.0 |
| 20260508040054 | 51 | 360 | 2.0 | 5.0 | 0.00 | 0.17 | 0.17 | 83 | 1011.0 |
| 20260508035547 | 51 | 360 | 3.0 | 6.0 | 0.00 | 0.17 | 0.17 | 83 | 1010.9 |
| 20260508035047 | 51 | 360 | 4.0 | 9.0 | 0.00 | 0.17 | 0.17 | 83 | 1011.0 |
| 20260508034547 | 52 | 360 | 5.0 | 9.0 | 0.00 | 0.17 | 0.17 | 82 | 1011.0 |
| 20260508034046 | 52 | 360 | 4.0 | 8.0 | 0.00 | 0.17 | 0.17 | 82 | 1011.0 |
| 20260508033545 | 52 | 360 | 3.0 | 6.0 | 0.00 | 0.17 | 0.17 | 82 | 1011.0 |
| 20260508033046 | 52 | 360 | 3.0 | 8.0 | 0.00 | 0.17 | 0.17 | 82 | 1011.1 |
| 20260508032545 | 52 | 360 | 4.0 | 8.0 | 0.00 | 0.17 | 0.17 | 82 | 1011.1 |
| 20260508032045 | 51 | 360 | 3.0 | 6.0 | 0.00 | 0.17 | 0.17 | 82 | 1011.1 |
| 20260508031545 | 52 | 360 | 4.0 | 6.0 | 0.00 | 0.17 | 0.17 | 83 | 1011.1 |
| 20260508031045 | 51 | 360 | 4.0 | 6.0 | 0.00 | 0.17 | 0.17 | 83 | 1011.0 |
| 20260508030545 | 51 | 360 | 3.0 | 5.0 | 0.00 | 0.17 | 0.17 | 83 | 1011.0 |
| 20260508030045 | 51 | 360 | 2.0 | 5.0 | 0.00 | 0.17 | 0.17 | 83 | 1011.0 |
| 20260508025546 | 51 | 360 | 2.0 | 6.0 | 0.00 | 0.17 | 0.17 | 83 | 1011.1 |
| 20260508025044 | 51 | 360 | 4.0 | 6.0 | 0.00 | 0.17 | 0.17 | 83 | 1011.1 |
| 20260508024550 | 51 | 360 | 3.0 | 6.0 | 0.00 | 0.17 | 0.17 | 83 | 1011.1 |
| 20260508024045 | 51 | 360 | 4.0 | 8.0 | 0.00 | 0.17 | 0.17 | 83 | 1011.1 |
| 20260508023544 | 51 | 360 | 3.0 | 8.0 | 0.00 | 0.17 | 0.17 | 83 | 1011.1 |
| 20260508023043 | 51 | 360 | 2.0 | 8.0 | 0.00 | 0.17 | 0.17 | 83 | 1011.2 |
| 20260508022543 | 52 | 360 | 4.0 | 8.0 | 0.00 | 0.17 | 0.17 | 83 | 1011.1 |
| 20260508022043 | 52 | 360 | 5.0 | 9.0 | 0.00 | 0.17 | 0.17 | 83 | 1011.2 |
| 20260508021544 | 52 | 360 | 4.0 | 10.0 | 0.00 | 0.17 | 0.17 | 83 | 1011.2 |
| 20260508021042 | 52 | 360 | 5.0 | 9.0 | 0.00 | 0.17 | 0.17 | 83 | 1011.2 |
| 20260508020544 | 52 | 360 | 2.0 | 10.0 | 0.00 | 0.17 | 0.17 | 82 | 1011.1 |
| 20260508020043 | 52 | 360 | 3.0 | 11.0 | 0.00 | 0.17 | 0.17 | 82 | 1011.2 |
| 20260508015542 | 52 | 360 | 7.0 | 11.0 | 0.00 | 0.17 | 0.17 | 82 | 1011.1 |
| 20260508015042 | 52 | 360 | 5.0 | 10.0 | 0.00 | 0.17 | 0.17 | 82 | 1011.1 |
| 20260508014544 | 52 | 360 | 5.0 | 11.0 | 0.00 | 0.17 | 0.17 | 83 | 1011.1 |
| 20260508014041 | 52 | 360 | 5.0 | 11.0 | 0.00 | 0.17 | 0.17 | 84 | 1011.1 |
| 20260508013540 | 52 | 360 | 5.0 | 10.0 | 0.00 | 0.17 | 0.17 | 84 | 1011.0 |
| 20260508013045 | 52 | 232 | 6.0 | 10.0 | 0.00 | 0.17 | 0.17 | 85 | 1011.0 |
| 20260508012539 | 52 | 232 | 5.0 | 8.0 | 0.00 | 0.17 | 0.17 | 85 | 1011.0 |
| 20260508012043 | 52 | 232 | 2.0 | 6.0 | 0.00 | 0.17 | 0.17 | 85 | 1011.0 |
| 20260508011540 | 52 | 360 | 3.0 | 8.0 | 0.00 | 0.17 | 0.17 | 85 | 1011.1 |
| 20260508011041 | 52 | 360 | 3.0 | 9.0 | 0.00 | 0.17 | 0.17 | 84 | 1010.9 |
| 20260508010539 | 52 | 360 | 4.0 | 9.0 | 0.00 | 0.17 | 0.17 | 84 | 1010.9 |
| 20260508010039 | 52 | 360 | 4.0 | 9.0 | 0.00 | 0.17 | 0.17 | 83 | 1010.9 |
| 20260508005541 | 52 | 360 | 5.0 | 11.0 | 0.00 | 0.17 | 0.17 | 83 | 1010.9 |